Helicity
72 85 134 83 56 71 2 19 14 6 26 2 115 39 30 25 32 -3 51 11 113 51 22 2 -2 6 6 2 10 9 -1 -4 3 1 1 2 3 4 4 4 5 12 18 21 18 4 2 2 -4
111 107 73 17 -65 -64 -49 46 -3 18 53 16 45 89 73 37 54 49 7 115 98 50 20 18 12 11 1 5 11 9 5 4 5 11 10 9 7 8 6 10 14 12 22 25 22 18 16 22 14
89 88 57 143 90 -17 22 13 48 -2 52 21 -1 62 21 53 38 24 92 79 95 41 23 37 29 24 13 4 9 10 13 12 12 16 17 17 13 11 15 17 20 25 29 30 26 25 29 24 18
111 191 69 -38 102 22 22 59 62 -4 33 37 30 79 29 43 3 90 71 40 84 32 60 42 47 30 27 17 14 20 27 21 18 21 23 20 18 15 18 24 21 19 25 33 31 19 33 30 21
206 97 -52 18 -26 22 -4 -5 64 29 40 37 46 79 41 16 18 70 29 48 80 81 66 44 45 36 31 26 20 25 33 31 27 21 20 20 22 22 12 8 17 16 5 15 34 20 31 33 22
97 128 -2 8 216 100 79 59 55 36 63 60 54 73 33 28 61 35 -9 42 83 224 101 63 45 39 31 26 18 18 27 31 35 26 23 24 21 19 -1 -12 -11 -1 -2 -10 4 15 33 33 2
164 58 4 53 -20 12 -23 27 32 -14 36 52 20 57 39 65 46 19 -19 20 172 135 129 82 57 33 32 29 27 21 22 29 26 28 22 18 12 -7 -23 -19 -19 -11 -9 -10 -5 2 6 -1 6
6 59 29 15 26 -10 5 37 26 24 -18 60 45 -7 67 101 49 8 -9 11 95 150 96 49 53 34 19 21 26 25 24 28 23 22 24 21 21 24 89 21 -7 -7 -6 -9 -4 -5 2 5 9
30 23 30 21 21 7 -5 22 123 51 99 48 -5 92 172 96 44 9 -10 30 75 68 79 11 26 21 8 22 28 23 26 28 36 32 36 36 9 110 95 72 30 11 18 17 20 24 21 10 21
-2 -16 6 26 23 0 44 32 180 98 23 7 113 114 150 75 38 30 1 82 66 5 70 64 17 28 13 1 111 28 30 30 38 39 60 37 154 134 70 37 52 57 47 32 33 28 36 24 1
21 10 2 28 46 44 26 45 50 82 -18 27 156 134 114 86 26 27 12 78 81 28 2 79 59 90 22 3 92 8 13 19 62 82 109 83 129 224 -145 -55 37 63 60 27 39 30 16 19 6
-12 -15 3 9 53 23 -1 29 10 40 54 0 131 149 89 72 28 31 24 72 91 68 2 70 97 118 23 25 43 56 16 37 55 161 138 112 40 168 78 56 41 45 17 27 9 -9 3 -15 -15
23 7 27 43 40 26 30 14 29 18 26 31 90 107 63 38 33 22 20 65 108 93 -18 72 114 130 79 44 62 52 105 121 126 81 95 -1 22 20 38 69 49 48 90 26 6 18 25 -5 3
30 22 9 19 5 7 16 4 21 58 33 11 68 89 90 90 56 24 18 72 138 108 30 36 74 94 74 37 54 43 51 45 106 -27 41 63 21 32 34 50 34 33 44 24 17 7 13 14 -1
-6 43 25 41 22 6 -6 42 26 62 20 63 33 41 89 100 58 109 42 59 157 113 102 45 51 111 92 38 24 52 50 90 52 10 9 84 13 70 84 64 8 -12 -13 -3 9 12 -3 2 4
31 51 19 36 29 46 23 77 58 20 55 6 40 52 44 80 180 55 45 45 164 100 140 71 72 86 140 60 49 28 17 66 27 73 50 58 60 49 80 48 28 61 -18 28 33 20 -2 -4 -13
42 40 6 27 49 -5 7 33 94 25 38 12 64 73 28 42 159 153 106 50 212 85 139 149 54 86 199 114 113 45 43 63 78 70 61 40 54 34 41 38 38 104 44 50 75 33 31 14 -2
58 59 40 13 34 22 1 34 77 63 41 37 31 96 207 -53 111 85 150 103 191 104 181 155 77 76 174 138 92 51 19 38 78 67 73 69 98 51 34 18 46 76 57 53 45 33 25 28 33
27 40 22 2 68 16 -29 -4 98 70 63 33 -4 31 171 18 31 105 64 151 375 36 393 183 121 189 128 128 127 75 52 48 42 105 63 63 134 96 21 39 32 37 48 63 28 25 21 26 23
-2 2 29 22 70 32 -9 8 54 60 39 36 57 22 40 52 13 62 68 38 162 155 254 196 172 247 145 65 92 93 84 48 84 101 67 137 76 102 94 61 9 33 56 59 37 31 43 1 10
4 25 23 34 33 25 4 74 271 302 241 21 23 6 87 53 18 9 44 12 87 211 221 288 171 251 188 92 59 88 90 103 119 156 120 124 79 46 70 57 -1 27 29 45 47 34 36 33 -17
38 26 46 37 12 3 20 145 139 48 110 17 47 39 52 24 68 -3 -28 64 27 130 127 186 206 237 192 145 43 72 108 124 102 142 123 112 167 25 91 43 60 1 27 33 52 27 42 52 8
19 36 20 18 7 30 131 102 57 53 46 5 15 41 43 8 58 2 -1 -15 41 19 57 128 192 182 141 98 67 50 85 122 98 152 158 150 101 78 55 20 74 21 52 32 32 -24 80 63 43
38 -7 8 24 27 30 188 215 179 56 -11 -34 56 64 19 33 52 28 26 51 86 84 75 96 150 124 126 113 112 86 89 94 90 143 195 146 110 113 81 76 103 63 63 33 29 36 42 53 40
10 33 42 13 14 -35 36 104 27 -69 5 23 77 61 40 71 42 52 49 49 49 58 87 117 113 90 67 74 52 47 95 60 96 191 236 174 60 73 98 56 83 68 70 42 55 59 49 39 40
34 36 6 -10 2 119 39 178 -15 -47 -1 40 80 61 63 80 63 80 59 45 42 48 49 61 102 73 67 53 46 68 167 141 120 226 224 191 40 56 139 44 85 55 66 68 51 53 63 68 42
22 14 29 -19 30 69 95 130 267 300 28 26 53 52 69 51 94 69 62 37 46 53 62 71 70 58 56 45 72 77 148 83 88 178 120 126 102 27 17 56 -9 64 65 71 62 65 61 76 69
-3 19 40 -1 -17 -65 49 65 12 113 10 37 20 53 58 43 66 68 69 57 46 63 58 61 69 65 48 56 59 64 90 54 52 111 93 89 80 32 31 9 13 29 24 60 75 61 35 62 72
39 5 19 0 42 -16 1 20 76 81 -56 55 75 32 50 64 116 94 80 64 62 74 71 64 48 56 63 76 65 56 46 38 8 -24 -38 0 53 49 16 0 5 18 12 37 73 81 46 60 62
46 34 21 7 35 78 72 -99 -12 101 18 97 16 46 69 90 154 103 78 72 69 71 58 55 44 36 41 139 85 67 60 28 9 -70 -74 -28 0 16 7 -2 15 10 1 18 44 32 53 79 99
Wind_Speed
38 38 35 28 27 31 53 53 33 53 36 48 54 52 42 30 41 37 52 53 53 56 56 55 57 55 55 53 49 46 46 42 42 46 48 49 47 44 44 45 42 39 38 39 38 37 41 44 47
37 29 27 25 50 41 44 43 47 49 48 45 48 44 42 48 41 46 54 47 51 53 55 52 54 53 52 50 50 46 44 41 40 41 44 44 43 41 41 39 40 39 39 36 37 34 32 36 39
32 27 29 36 32 41 45 47 50 44 47 44 43 46 41 47 45 52 46 51 47 48 49 49 51 51 50 48 46 44 42 40 38 39 40 40 41 40 38 37 36 35 37 37 35 35 33 31 33
26 26 27 30 33 43 47 47 42 50 46 49 44 47 46 42 44 46 50 51 45 43 39 45 46 46 47 45 43 41 40 39 37 36 37 37 37 38 37 35 35 35 35 35 35 36 35 34 32
25 23 36 34 40 44 47 47 46 45 47 50 48 48 45 36 39 47 51 49 42 40 37 37 39 39 40 40 39 36 35 36 33 33 34 34 33 33 34 33 32 32 35 35 34 36 32 27 29
25 22 35 35 42 40 21 44 3 50 48 45 44 47 43 40 42 48 51 46 44 38 35 34 31 34 34 37 37 34 32 33 30 32 31 30 30 29 30 29 28 30 32 35 33 32 31 28 33
26 28 33 36 36 39 41 46 50 41 49 48 39 48 41 43 43 45 48 43 44 40 34 31 30 30 32 33 34 34 35 32 32 31 27 27 26 26 34 34 33 32 32 34 34 33 34 35 36
28 29 34 35 37 35 35 47 41 46 46 44 40 34 37 39 42 43 45 41 42 38 34 31 27 26 30 32 33 33 33 31 34 29 25 22 21 19 37 44 37 31 30 36 36 34 33 36 36
28 34 31 32 35 34 30 43 41 32 40 46 48 47 42 40 41 39 39 37 33 36 36 34 33 32 31 30 33 32 32 30 28 23 22 19 18 18 15 40 41 34 33 35 36 34 34 37 38
31 28 30 33 33 34 42 41 42 46 35 39 49 51 45 41 38 36 35 32 30 27 31 35 32 31 31 32 29 29 29 27 24 22 25 23 19 19 30 40 40 36 33 34 35 34 32 36 37
30 28 29 31 32 28 31 34 42 42 46 41 43 43 41 39 37 32 30 28 27 26 27 26 29 26 27 20 21 22 29 27 27 25 25 20 17 11 39 37 35 34 32 32 34 32 32 35 36
30 27 27 29 34 34 37 22 41 45 42 43 41 40 38 36 34 33 29 23 22 22 22 18 20 22 24 22 19 23 27 27 19 20 25 20 21 28 33 31 30 29 29 33 39 36 34 40 26
36 29 22 28 28 32 31 25 39 41 44 43 41 39 37 34 33 32 27 25 21 17 18 18 12 13 15 34 18 26 13 17 21 16 20 22 22 24 25 26 28 26 23 30 38 35 34 38 38
32 36 37 22 24 26 28 27 35 36 39 37 34 32 34 34 35 34 29 22 20 18 17 15 15 14 14 16 39 39 15 19 21 40 20 23 21 21 24 24 25 22 25 29 33 37 35 36 34
41 36 32 24 29 27 31 10 28 39 33 34 30 29 29 28 29 34 31 26 17 17 21 17 10 13 11 11 6 25 35 16 17 21 21 20 24 20 24 23 26 31 30 33 32 37 40 39 37
38 33 9 24 34 28 23 28 23 30 36 32 30 28 22 24 23 8 34 27 23 25 18 18 15 8 9 10 13 6 8 8 11 12 16 20 17 18 20 22 24 29 29 33 36 34 37 41 42
30 17 30 26 29 28 22 30 27 30 35 30 26 24 25 20 22 19 23 25 24 23 22 17 17 15 11 6 9 9 7 6 8 8 9 17 14 17 19 20 25 26 26 28 29 31 25 27 39
38 38 23 24 27 35 19 36 27 32 34 29 28 24 36 24 20 22 23 24 24 28 28 24 13 7 9 6 6 12 16 11 8 7 10 6 18 27 20 21 21 24 23 26 28 29 29 27 30
38 40 39 23 25 30 29 31 25 35 34 30 30 30 27 26 23 16 14 19 20 35 10 34 18 6 6 6 4 9 15 12 15 7 6 9 10 10 27 21 16 20 20 23 23 24 25 24 28
46 11 18 12 21 22 18 32 33 37 34 32 33 28 32 28 23 21 20 22 24 24 20 22 19 12 14 18 10 3 9 14 8 11 21 15 2 5 12 9 12 18 17 17 17 17 20 24 26
30 28 22 35 28 16 12 26 38 47 43 20 32 28 36 33 30 23 20 22 20 20 20 22 25 19 15 18 14 1 18 28 35 24 26 17 6 10 17 23 22 20 18 14 13 13 13 16 22
33 28 42 31 20 2 36 12 43 53 41 32 25 37 33 29 34 28 23 19 18 20 21 28 24 17 11 8 18 7 10 22 34 27 24 23 34 34 32 26 12 23 24 14 14 9 10 13 16
41 44 44 45 47 46 26 34 34 33 34 30 20 32 36 29 38 31 29 26 24 20 19 20 17 17 13 11 14 14 13 32 45 44 32 25 22 22 17 1 11 14 13 13 11 23 8 10 9
44 35 40 42 41 31 16 17 18 22 31 31 33 34 36 38 40 41 37 36 31 29 25 21 18 15 12 9 5 10 14 19 28 60 59 68 44 16 16 12 4 7 18 14 12 19 16 11 17
13 37 41 46 44 21 27 16 15 37 31 32 34 35 37 40 39 42 42 41 38 35 30 26 22 17 14 13 12 6 14 23 30 38 39 61 71 51 17 18 15 16 11 10 12 10 9 27 24
25 47 51 48 46 6 16 17 24 34 37 34 35 36 37 39 39 41 42 41 39 35 31 29 27 20 19 19 16 16 26 28 26 29 37 28 57 57 65 45 9 16 14 7 6 4 6 22 28
42 51 47 58 53 6 30 28 28 34 20 32 32 33 34 37 40 40 39 39 38 37 34 32 31 28 25 25 38 43 49 32 15 20 46 47 59 69 3 36 61 30 26 19 3 4 1 6 23
52 54 46 49 47 42 36 35 17 33 31 27 29 30 31 32 37 39 39 38 36 36 36 35 36 32 34 38 44 55 60 64 28 25 33 48 54 59 55 42 43 43 43 32 19 7 6 5 11
13 50 50 47 31 31 62 67 35 29 27 22 28 25 28 30 34 36 37 36 37 38 37 36 35 35 35 37 44 51 54 53 49 31 17 40 46 55 57 56 53 52 50 34 24 15 7 8 5
56 45 54 50 49 12 13 29 30 28 19 26 22 29 31 31 32 34 34 34 35 37 36 36 38 40 36 38 38 40 41 41 42 34 23 41 45 50 52 55 56 60 55 42 43 38 27 19 20
Wind_Direction
135 136 126 121 104 76 21 27 118 64 101 51 44 57 76 110 99 56 105 113 105 110 114 114 119 118 122 121 117 107 95 77 71 71 74 80 80 71 70 70 62 51 44 47 46 51 67 73 79
150 159 142 158 43 6 15 83 67 33 45 18 41 67 25 32 45 83 108 98 105 109 115 112 115 116 117 118 121 113 103 86 77 73 77 76 77 73 71 61 62 58 55 47 57 53 52 62 71
146 138 138 80 79 349 19 54 42 21 49 64 62 28 71 47 70 101 96 105 100 105 108 109 113 114 115 114 112 108 101 92 83 79 77 73 77 75 66 59 53 52 61 65 65 68 66 60 67
145 129 113 24 331 359 22 34 54 64 56 41 27 40 35 55 79 90 103 108 98 104 97 107 109 112 114 112 109 106 104 102 93 83 82 83 82 80 73 61 61 68 71 73 82 97 92 82 70
155 175 330 30 43 33 25 45 48 47 33 27 52 40 42 45 66 96 108 107 97 101 98 101 104 106 108 110 111 108 104 106 94 91 95 92 88 86 93 92 83 93 116 108 90 114 94 65 75
225 170 343 354 345 5 280 5 57 14 33 50 41 41 46 70 84 101 113 102 102 95 99 105 100 101 103 110 113 112 110 109 99 108 102 88 88 91 120 142 136 126 135 145 123 115 100 94 135
207 254 346 23 54 26 26 11 22 53 26 31 54 18 54 81 94 104 113 98 101 101 96 106 107 103 104 108 113 118 122 113 122 121 100 108 99 116 208 202 185 165 156 161 153 146 157 172 182
280 274 3 349 354 7 342 22 356 13 17 59 55 69 80 88 101 106 111 102 93 93 95 105 109 108 114 118 123 126 127 121 140 127 116 99 96 59 323 240 204 174 164 179 178 167 168 180 182
240 269 350 346 9 10 338 18 34 310 320 25 27 75 82 96 106 107 109 99 96 98 98 109 118 120 124 121 128 133 136 133 133 109 111 95 94 31 115 202 200 176 170 176 182 174 172 181 183
323 327 341 298 348 351 41 39 48 34 31 102 54 63 82 98 106 109 113 102 102 103 103 115 120 120 124 135 118 125 130 130 124 111 127 134 52 30 213 193 184 181 168 173 178 167 158 169 178
315 6 322 24 319 267 298 59 10 41 30 59 60 71 88 98 107 107 113 106 107 110 114 108 114 114 116 106 98 105 137 133 136 129 134 124 125 151 172 173 168 163 160 170 166 155 155 166 170
275 299 35 344 66 43 327 275 24 26 38 357 70 80 87 94 104 110 111 97 97 102 116 88 90 106 115 104 100 118 129 131 90 113 146 135 131 103 139 151 151 146 144 176 189 172 167 194 129
248 318 68 58 73 50 60 80 22 36 34 51 63 73 85 96 101 111 104 108 99 95 103 100 67 86 96 280 324 318 48 83 9 88 133 185 136 123 114 101 138 131 125 158 201 171 168 180 183
294 246 252 104 89 78 44 66 49 45 31 43 60 80 99 100 112 115 115 102 100 103 118 103 98 98 104 128 282 281 25 95 3 214 145 146 127 104 137 109 137 104 131 152 176 194 175 169 163
235 212 209 118 43 57 27 70 40 25 50 47 60 68 100 101 122 119 121 114 85 105 121 124 96 103 88 99 5 312 301 5 28 121 137 113 142 65 82 67 2 199 195 204 186 186 207 183 173
178 188 95 27 13 48 76 27 43 50 36 36 52 63 88 93 105 29 118 110 108 124 114 118 120 97 102 82 118 67 115 17 94 58 119 129 96 91 60 90 92 5 182 196 203 181 190 196 194
150 43 330 13 37 41 58 30 52 48 38 44 55 82 65 73 99 103 101 123 117 129 118 111 127 122 120 36 67 113 358 40 72 46 38 142 110 8 58 72 113 126 130 155 167 170 139 154 200
301 235 37 27 37 8 70 27 64 44 34 48 58 68 48 217 115 127 128 143 126 141 134 123 109 67 51 41 36 357 335 344 353 360 355 18 356 343 146 129 99 116 124 143 152 148 141 130 157
263 295 316 12 21 11 2 4 29 21 34 36 45 51 77 122 112 108 89 133 18 151 341 121 102 89 67 35 100 357 329 333 329 331 322 348 5 41 170 153 97 116 119 126 118 105 131 109 145
258 73 163 51 22 27 53 354 11 14 14 21 25 51 49 53 62 84 139 141 134 136 129 100 118 117 143 156 153 97 335 325 309 314 312 310 242 141 138 49 84 125 47 94 79 67 41 149 147
178 177 185 334 359 35 42 3 337 317 304 304 49 62 50 58 55 91 131 174 143 127 116 130 148 138 142 167 171 185 321 314 308 300 301 303 267 301 328 326 243 327 347 89 50 72 85 75 147
180 314 318 336 356 112 215 16 340 300 264 244 71 40 60 72 54 66 82 109 140 144 136 150 144 138 133 148 195 247 304 306 302 298 290 290 294 228 309 312 328 180 319 352 19 43 43 38 138
209 321 319 271 229 220 343 332 358 32 282 197 168 79 67 105 74 94 81 81 76 95 106 121 116 130 130 149 189 215 236 299 295 293 286 288 291 308 323 261 312 170 325 336 351 190 18 15 46
301 222 230 209 194 194 73 17 5 165 112 169 87 85 84 69 68 63 67 63 67 64 71 76 74 77 86 110 151 215 247 270 264 279 279 269 276 287 302 309 199 300 319 327 330 325 335 344 338
120 188 217 213 200 162 313 50 89 147 140 102 96 83 74 62 70 58 65 66 76 79 81 73 66 69 70 40 24 341 305 279 276 261 270 281 261 276 282 297 306 316 333 334 328 330 316 315 318
159 205 238 255 250 126 160 337 101 103 92 67 67 74 64 57 56 54 58 66 74 78 80 71 61 71 64 48 27 357 330 310 287 265 262 270 270 281 266 279 297 318 334 339 334 320 319 311 307
194 213 234 247 232 226 334 320 0 307 125 60 50 54 47 54 57 59 60 61 62 63 66 57 54 55 54 43 20 12 1 345 309 286 274 283 254 260 82 284 245 309 317 321 322 327 278 318 309
219 241 247 250 257 251 284 321 346 216 154 56 51 50 41 55 51 51 51 55 60 57 53 53 43 52 42 29 24 20 27 32 1 328 294 271 260 270 274 289 296 299 299 314 316 314 196 188 314
110 210 227 266 334 314 293 309 182 150 135 43 25 51 55 56 52 49 51 53 50 46 47 43 39 35 38 36 29 31 41 53 53 19 315 249 249 268 275 276 284 287 293 312 317 309 270 287 272
245 282 260 239 301 41 7 358 174 154 55 19 61 21 35 42 44 45 49 46 45 42 40 39 33 26 32 33 36 40 53 70 71 99 352 247 250 256 260 275 287 282 293 306 302 307 310 298 300